Wind_Speed
21 16 12 12 9 11 6 4 6 2 7 4 6 10 10 10 10 7 12 10 7 7 8 7 6 2 4 5 7 10 12 12 14 17 21 23 26 28 33 30 28 32 31 30 30 30 30 30 30
16 15 14 14 13 12 2 12 5 8 7 3 4 7 8 12 11 8 8 10 12 10 9 9 8 3 3 5 6 8 10 12 15 17 20 24 30 31 29 24 32 34 34 33 30 30 31 33 33
16 18 11 10 12 11 3 8 12 9 5 4 4 7 11 12 11 8 8 11 10 11 13 15 15 11 10 9 10 11 14 16 20 22 22 24 28 31 34 36 33 34 34 36 36 35 35 34 33
17 25 21 24 4 1 7 6 13 7 1 6 9 8 9 10 12 13 12 13 14 13 13 14 13 15 15 15 15 15 16 17 20 21 24 26 26 31 34 35 35 36 37 37 36 36 36 35 35
19 20 10 8 0 4 5 3 4 2 3 7 9 8 9 11 10 10 12 14 15 15 12 9 13 17 18 19 18 20 20 21 22 23 26 25 26 35 34 35 37 39 39 36 35 37 38 39 37
30 25 7 8 1 3 8 6 6 7 7 8 8 8 9 8 11 15 17 15 15 14 13 13 14 20 22 19 19 19 19 21 22 25 27 25 23 27 29 28 33 41 46 43 36 37 40 41 41
27 3 6 3 2 2 6 6 6 5 5 9 9 9 11 10 15 19 17 18 18 17 15 16 19 20 22 24 24 24 23 22 24 26 28 30 28 26 32 36 36 38 38 28 30 40 40 44 45
23 14 6 4 14 8 8 4 0 1 3 5 8 11 9 18 19 19 21 20 22 23 22 19 18 22 26 28 27 26 24 23 24 28 30 31 32 32 28 29 29 33 36 38 40 42 41 44 34
22 22 4 3 9 4 9 12 10 5 3 3 5 4 9 18 19 19 21 19 18 23 23 24 24 29 30 26 23 20 23 21 19 21 24 28 31 33 35 32 35 38 39 41 43 46 47 50 47
17 25 12 5 4 5 7 11 12 9 6 5 5 6 12 16 17 20 24 25 20 25 29 26 29 29 25 22 22 25 22 20 21 21 21 22 24 25 27 30 33 36 37 39 40 44 49 49 49
3 14 14 5 9 5 7 9 11 11 11 9 7 8 12 14 17 22 26 27 26 30 31 29 30 28 23 23 26 27 23 22 23 26 29 28 30 30 33 35 38 42 45 46 47 46 48 47 48
10 8 8 7 7 5 7 8 8 7 6 8 10 12 14 17 21 21 21 25 29 30 31 31 31 28 27 25 30 30 26 29 30 31 33 37 38 38 38 38 39 41 44 47 51 51 51 51 49
9 6 7 8 8 6 9 9 8 4 5 7 10 14 16 17 19 18 21 27 31 31 32 33 32 30 27 28 30 29 31 31 36 37 38 41 42 42 42 43 43 43 43 44 47 52 54 54 54
6 8 8 12 8 8 10 11 11 9 6 9 13 15 17 17 21 22 25 29 34 32 32 32 31 30 27 29 32 33 36 37 39 40 39 42 43 44 44 45 45 46 45 44 45 45 48 53 54
5 9 10 11 7 9 12 9 13 11 10 10 12 17 19 20 23 27 31 30 34 35 35 35 34 27 30 33 34 37 39 42 43 43 43 43 44 45 47 47 47 47 47 47 47 49 48 46 49
7 11 11 11 8 9 9 9 11 13 12 12 16 18 20 24 24 28 33 32 34 36 35 36 34 32 32 33 36 38 40 42 43 44 45 46 45 46 47 47 48 48 48 48 48 50 50 47 46
11 14 12 4 12 10 8 11 11 15 14 16 19 20 22 23 25 29 33 34 36 35 36 36 30 30 32 34 37 41 42 44 44 44 44 43 43 43 45 46 46 46 46 46 47 48 50 50 49
10 8 1 12 15 12 10 12 15 16 18 18 19 22 22 25 26 29 33 34 35 34 35 30 26 28 31 36 39 41 43 44 42 41 42 41 42 42 42 42 42 41 42 45 47 48 50 50 49
20 8 10 10 24 13 12 16 19 18 19 19 19 22 25 27 26 30 32 33 33 34 32 23 23 28 33 36 38 41 41 40 42 44 46 42 39 36 35 35 38 43 45 47 46 45 45 45 45
23 19 11 20 21 17 17 18 24 19 20 24 23 24 27 28 28 31 32 31 31 33 27 21 25 29 37 37 41 40 39 42 46 44 36 33 33 33 35 37 41 46 44 41 39 40 41 42 41
21 19 15 17 19 17 17 18 20 22 24 23 25 26 29 26 29 31 31 30 31 29 23 22 26 32 36 38 41 39 41 44 42 35 35 36 37 34 33 36 41 44 42 40 35 33 34 37 40
21 20 21 17 20 14 19 15 28 24 24 23 27 29 29 29 29 28 29 30 30 25 23 25 28 33 34 38 40 38 41 42 37 35 34 37 38 33 34 38 41 42 39 35 34 32 29 30 32
17 19 17 19 20 16 17 16 13 25 23 27 25 30 29 30 26 26 26 28 28 24 23 25 28 31 32 36 38 37 40 40 37 35 37 38 40 34 33 37 38 41 38 35 33 29 26 23 23
18 18 14 11 14 14 20 11 20 32 23 26 25 27 29 27 26 26 28 28 26 23 22 26 28 30 30 33 36 37 39 40 39 37 38 38 40 34 33 36 38 39 38 33 30 26 22 20 19
17 11 8 10 13 14 17 12 19 29 20 24 24 29 28 25 24 25 26 27 24 23 23 25 28 29 30 33 36 37 39 40 40 39 38 38 39 35 33 34 36 37 37 35 29 24 19 15 14
15 13 11 17 16 21 19 16 17 26 19 26 27 27 24 23 23 25 26 27 21 22 22 25 27 29 29 32 35 36 38 40 41 39 38 37 37 37 35 33 34 35 35 35 30 23 19 13 9
13 19 9 19 16 15 10 30 26 25 23 32 28 26 23 22 24 25 25 26 20 20 22 25 26 28 30 30 34 35 37 39 40 40 39 36 36 36 36 36 36 35 35 34 31 26 18 15 10
23 14 15 13 13 15 16 15 24 21 31 33 27 23 21 21 23 25 25 24 20 21 22 24 25 27 28 28 31 33 35 37 38 38 38 35 34 34 36 37 37 36 35 35 32 26 22 15 13
19 12 15 15 15 16 15 26 27 32 28 29 24 22 21 20 24 24 23 23 20 21 21 23 24 24 26 25 28 31 32 35 36 37 36 35 34 34 34 35 37 38 36 35 35 29 22 17 12
22 18 17 18 14 19 21 18 27 31 31 26 22 21 20 20 23 22 22 22 20 21 22 22 23 22 24 23 27 29 31 31 34 35 35 34 33 34 34 35 36 37 38 36 36 31 24 19 14
Wind_Direction
124 123 110 109 110 64 153 264 287 327 322 6 71 72 92 90 75 48 42 42 40 27 21 23 41 355 289 283 285 284 284 278 265 255 255 246 253 254 246 232 238 244 243 245 245 245 243 241 243
120 109 107 132 137 144 266 180 214 277 323 10 70 71 57 43 44 43 17 9 15 25 26 19 8 4 267 266 257 279 290 289 284 265 253 248 248 244 248 245 241 244 243 241 242 244 243 244 244
116 96 92 324 101 83 267 268 279 287 335 26 68 62 48 49 43 26 358 348 357 15 22 18 9 357 341 331 319 308 296 285 282 278 266 255 249 250 254 253 246 251 247 245 243 244 243 244 246
111 104 80 53 53 34 276 292 349 356 248 97 83 67 52 44 31 15 17 9 7 8 10 15 22 15 7 356 346 333 320 305 293 284 279 281 267 261 260 255 252 250 247 246 248 249 248 246 246
108 86 79 136 145 167 350 27 114 160 183 90 76 56 45 40 30 25 21 20 18 19 27 27 10 358 349 339 333 331 319 309 302 294 288 283 281 267 256 254 260 260 253 251 249 250 251 251 248
93 97 126 125 259 21 12 19 112 171 107 82 63 48 47 42 41 43 39 35 25 15 4 349 342 337 334 324 319 314 309 299 294 293 296 291 289 271 275 280 285 261 254 249 252 253 255 253 250
97 109 103 202 299 15 351 8 122 11 83 72 71 69 64 57 41 39 35 27 19 7 348 333 325 323 325 326 323 318 312 297 289 289 287 286 288 280 274 272 279 278 282 283 270 261 261 262 254
103 102 147 251 123 303 351 333 226 118 48 99 109 92 64 29 25 20 18 9 5 354 344 340 332 328 326 321 323 318 311 302 286 286 287 285 283 288 280 276 277 281 284 284 279 281 279 256 246
112 115 138 139 152 318 2 38 43 107 65 57 109 84 20 4 7 4 1 355 350 355 345 335 334 332 324 326 330 331 327 321 315 307 300 297 293 292 294 295 293 290 288 284 281 277 275 276 268
127 127 184 133 234 299 36 52 60 68 48 47 26 357 338 353 358 1 356 355 342 338 335 334 332 332 331 332 330 327 324 321 319 313 307 304 302 301 296 294 292 291 287 284 282 279 274 271 272
311 136 220 227 226 306 23 54 48 54 44 30 16 0 1 358 356 348 346 343 340 335 334 335 336 338 335 330 329 326 318 317 314 312 309 305 299 296 291 289 288 289 289 285 284 279 277 276 270
152 189 235 235 263 290 2 23 40 45 37 24 10 359 358 355 350 343 342 346 341 338 335 338 337 335 328 325 328 325 315 313 310 311 308 306 301 296 291 289 288 285 281 280 280 278 275 274 271
190 218 198 229 278 317 329 331 350 353 1 0 2 353 346 341 346 346 345 342 343 342 334 336 334 326 321 318 320 318 313 311 309 307 303 300 298 296 295 294 293 291 288 284 280 278 275 270 268
205 200 217 231 283 319 318 313 340 338 332 343 354 350 343 341 346 344 342 339 339 334 332 333 330 323 316 313 317 319 314 311 308 304 300 299 299 297 294 293 292 290 289 287 284 280 275 274 270
227 229 238 239 278 298 328 330 340 333 324 335 345 343 348 340 342 346 341 333 334 334 334 334 331 325 324 324 322 320 317 314 309 304 302 302 302 300 298 295 293 289 287 286 287 287 282 274 272
253 233 229 227 283 301 325 303 341 335 342 340 332 334 340 343 337 339 336 335 336 335 334 332 332 332 330 324 320 316 313 311 309 309 306 301 298 295 294 293 292 290 287 286 286 286 283 279 272
229 243 227 314 302 302 320 312 322 333 331 337 329 329 336 334 336 335 337 334 335 334 331 332 331 331 326 322 318 317 318 316 314 311 309 306 302 300 296 294 292 291 291 290 287 285 281 278 274
239 273 29 290 284 299 306 310 326 325 323 326 325 323 326 331 332 330 333 334 335 331 329 329 329 325 325 323 322 322 321 320 320 318 315 313 309 305 301 301 300 297 295 292 290 286 282 277 271
225 242 236 266 262 291 296 313 324 323 320 321 320 319 323 325 327 329 330 332 331 328 328 327 325 326 329 328 329 328 327 327 327 325 321 318 314 314 312 312 311 308 302 296 291 288 283 277 272
233 218 242 250 276 290 301 315 322 312 315 316 317 317 320 322 326 327 327 331 330 328 331 327 330 330 330 335 337 335 334 335 332 330 334 337 332 326 321 318 318 315 311 306 297 288 282 278 274
226 229 241 253 276 292 306 319 311 311 307 311 316 316 319 323 323 321 327 330 330 330 331 334 333 332 334 343 342 340 340 340 339 341 342 341 335 328 326 323 325 325 319 314 306 298 288 280 274
236 244 243 244 276 307 290 313 307 310 312 313 320 321 327 330 321 322 328 328 331 331 329 338 333 334 342 348 346 343 344 344 344 343 342 342 341 334 332 330 329 333 329 322 313 307 297 285 279
238 232 236 244 268 288 292 314 299 300 308 311 318 322 321 320 319 321 328 327 329 330 333 334 332 337 345 349 348 347 347 348 349 343 339 341 343 337 337 338 338 341 337 331 328 319 310 294 278
230 237 239 299 296 277 292 243 309 307 305 314 321 321 319 316 321 328 327 328 328 329 333 329 333 338 345 349 350 349 350 352 351 345 341 343 346 342 341 342 345 347 348 342 340 331 321 302 290
233 241 260 285 243 273 271 304 285 297 307 314 315 316 316 313 321 326 323 327 326 328 332 331 334 341 345 349 350 349 352 356 353 349 344 346 351 349 344 345 347 351 353 352 350 342 329 315 302
240 235 205 262 296 287 343 305 269 310 318 317 315 317 315 317 325 323 324 326 324 327 326 330 338 343 344 350 351 350 353 357 357 353 352 351 355 356 353 349 349 351 355 356 354 352 340 332 317
243 238 242 257 268 275 280 272 311 302 317 324 320 315 316 320 325 323 325 322 321 324 324 333 341 344 345 349 352 353 354 357 357 357 357 356 357 359 1 358 354 353 355 356 354 354 350 335 326
204 223 242 263 268 253 281 313 263 290 310 313 317 314 316 322 325 322 323 319 318 321 325 336 343 344 346 351 353 354 356 355 357 359 359 357 356 357 2 4 2 358 355 356 356 352 351 348 332
223 226 229 248 272 300 288 286 299 303 305 310 313 314 315 323 323 320 322 318 316 318 327 336 342 344 347 350 353 354 355 356 356 358 0 358 355 356 359 4 4 4 0 358 357 355 352 352 344
217 229 240 250 280 263 297 288 284 294 307 307 310 310 313 323 320 320 323 323 318 319 327 334 339 344 346 348 349 347 352 355 356 357 359 359 356 357 359 3 5 5 5 2 1 4 359 357 357
Height
5901 5902 5904 5904 5904 5904 5909 5906 5904 5900 5892 5894 5892 5891 5890 5888 5886 5887 5883 5881 5878 5876 5873 5872 5870 5870 5869 5868 5867 5867 5867 5866 5866 5865 5865 5866 5864 5864 5862 5862 5863 5865 5864 5863 5863 5864 5864 5865 5865
5902 5903 5904 5903 5904 5903 5908 5895 5899 5899 5896 5893 5891 5889 5888 5885 5884 5884 5883 5881 5878 5875 5873 5870 5869 5868 5868 5866 5865 5864 5864 5864 5864 5863 5862 5862 5860 5860 5857 5856 5857 5857 5858 5858 5858 5858 5860 5861 5862
5903 5905 5908 5898 5896 5905 5908 5903 5897 5897 5895 5893 5891 5890 5887 5885 5884 5883 5882 5880 5879 5875 5873 5871 5870 5869 5869 5868 5866 5865 5865 5862 5861 5859 5859 5857 5856 5856 5854 5854 5854 5853 5853 5852 5851 5852 5853 5854 5855
5905 5907 5911 5906 5914 5912 5906 5901 5896 5895 5893 5892 5890 5890 5888 5886 5885 5884 5882 5880 5877 5875 5874 5872 5870 5870 5869 5867 5866 5865 5863 5862 5859 5858 5856 5854 5853 5853 5850 5849 5848 5846 5845 5843 5844 5845 5845 5847 5848
5908 5910 5912 5919 5913 5910 5905 5904 5899 5897 5894 5893 5890 5890 5888 5887 5886 5885 5883 5880 5877 5875 5874 5872 5871 5869 5867 5866 5865 5862 5860 5857 5855 5854 5852 5851 5849 5846 5844 5844 5843 5841 5839 5837 5836 5837 5839 5840 5840
5907 5909 5920 5918 5913 5908 5905 5901 5902 5897 5894 5893 5891 5890 5890 5889 5887 5885 5881 5878 5876 5873 5872 5872 5870 5869 5866 5864 5862 5860 5856 5853 5850 5848 5846 5845 5844 5842 5839 5838 5837 5833 5832 5830 5829 5830 5832 5833 5833
5906 5916 5924 5921 5915 5911 5906 5903 5901 5898 5895 5893 5892 5893 5892 5891 5888 5884 5883 5880 5877 5875 5874 5872 5869 5867 5865 5861 5857 5854 5851 5848 5845 5843 5841 5839 5837 5836 5834 5833 5831 5828 5827 5824 5822 5824 5824 5826 5823
5910 5924 5924 5919 5911 5910 5906 5902 5900 5899 5897 5895 5894 5893 5892 5890 5887 5886 5883 5880 5879 5877 5873 5870 5868 5865 5861 5856 5851 5849 5845 5843 5840 5837 5835 5833 5831 5828 5828 5825 5825 5823 5820 5818 5817 5816 5819 5816 5808
5914 5914 5927 5921 5915 5911 5906 5902 5898 5898 5897 5896 5895 5893 5891 5889 5888 5886 5884 5882 5879 5876 5872 5869 5864 5858 5855 5850 5847 5844 5841 5838 5836 5833 5830 5827 5825 5823 5819 5819 5816 5815 5812 5810 5810 5808 5808 5808 5807
5911 5905 5922 5917 5914 5911 5907 5903 5900 5899 5897 5896 5896 5894 5892 5890 5887 5885 5882 5879 5877 5874 5870 5865 5861 5856 5850 5847 5844 5840 5837 5834 5831 5829 5826 5823 5821 5819 5815 5812 5810 5807 5805 5802 5800 5799 5796 5795 5796
5916 5910 5914 5915 5911 5911 5907 5904 5901 5899 5898 5897 5895 5893 5892 5889 5887 5884 5880 5877 5873 5870 5866 5861 5855 5850 5846 5843 5840 5837 5834 5831 5828 5825 5821 5819 5815 5813 5810 5807 5805 5800 5796 5792 5789 5788 5786 5785 5788
5915 5913 5912 5911 5911 5910 5908 5905 5903 5901 5899 5897 5895 5893 5891 5888 5885 5882 5879 5875 5872 5867 5862 5857 5852 5848 5843 5840 5837 5833 5830 5826 5823 5820 5816 5811 5807 5804 5801 5798 5795 5792 5789 5784 5779 5776 5774 5773 5775
5916 5911 5910 5911 5910 5909 5907 5905 5904 5902 5899 5896 5894 5892 5889 5887 5884 5880 5877 5873 5869 5864 5859 5855 5849 5845 5841 5838 5834 5831 5825 5822 5817 5813 5809 5803 5798 5794 5791 5787 5783 5780 5777 5773 5770 5765 5762 5762 5761
5910 5909 5909 5909 5909 5908 5907 5905 5903 5902 5898 5896 5893 5891 5888 5885 5882 5878 5875 5871 5867 5863 5858 5852 5847 5842 5839 5835 5830 5824 5819 5815 5810 5805 5801 5795 5789 5784 5780 5776 5772 5768 5764 5760 5757 5754 5751 5748 5747
5908 5908 5908 5908 5908 5907 5906 5905 5902 5900 5898 5896 5893 5890 5886 5883 5879 5876 5872 5868 5864 5858 5852 5847 5842 5839 5834 5828 5824 5818 5813 5807 5802 5796 5792 5785 5779 5773 5767 5763 5759 5755 5751 5747 5744 5740 5737 5735 5732
5907 5906 5904 5904 5906 5906 5906 5905 5902 5900 5898 5895 5892 5889 5885 5882 5878 5873 5869 5864 5859 5853 5849 5843 5837 5833 5829 5824 5819 5815 5810 5803 5796 5789 5782 5776 5770 5764 5757 5752 5747 5742 5738 5735 5730 5726 5723 5720 5719
5907 5906 5907 5888 5904 5906 5905 5904 5903 5900 5897 5894 5891 5888 5884 5880 5875 5871 5866 5861 5856 5851 5845 5840 5835 5831 5827 5822 5817 5810 5803 5796 5788 5781 5773 5767 5760 5754 5747 5741 5735 5729 5724 5719 5715 5711 5707 5705 5704
5911 5912 5903 5909 5907 5905 5903 5903 5901 5899 5896 5892 5889 5885 5882 5877 5872 5868 5863 5859 5854 5849 5843 5838 5834 5830 5825 5818 5811 5804 5796 5788 5780 5772 5764 5757 5749 5742 5735 5729 5722 5717 5711 5705 5699 5695 5691 5688 5687
5908 5908 5913 5912 5905 5904 5903 5900 5899 5897 5893 5890 5887 5883 5879 5874 5870 5865 5861 5856 5851 5847 5841 5837 5833 5827 5821 5814 5805 5797 5788 5780 5772 5763 5755 5746 5738 5731 5724 5718 5712 5705 5699 5692 5685 5680 5675 5672 5672
5904 5905 5911 5909 5903 5902 5900 5898 5895 5893 5891 5887 5884 5880 5875 5871 5867 5862 5858 5853 5848 5843 5838 5833 5829 5823 5816 5809 5800 5791 5782 5774 5764 5754 5745 5738 5731 5724 5717 5711 5703 5693 5683 5677 5672 5667 5662 5659 5658
5899 5902 5907 5908 5900 5900 5898 5896 5892 5890 5888 5885 5881 5876 5871 5869 5863 5858 5854 5849 5844 5839 5834 5829 5824 5819 5811 5803 5795 5786 5778 5768 5758 5749 5741 5734 5726 5718 5712 5704 5695 5685 5675 5665 5658 5654 5650 5647 5645
5896 5899 5901 5903 5899 5898 5895 5896 5887 5888 5885 5882 5877 5871 5867 5863 5859 5855 5850 5844 5839 5835 5830 5825 5820 5814 5808 5799 5791 5783 5774 5764 5755 5746 5739 5730 5721 5713 5706 5698 5688 5678 5667 5658 5650 5644 5640 5637 5634
5894 5896 5896 5899 5896 5894 5896 5892 5889 5886 5883 5879 5875 5870 5863 5860 5856 5852 5847 5841 5836 5831 5826 5822 5817 5811 5804 5797 5788 5780 5770 5761 5751 5743 5735 5727 5717 5708 5702 5693 5684 5673 5661 5652 5643 5636 5631 5629 5628
5890 5892 5893 5894 5891 5891 5890 5891 5892 5879 5878 5874 5871 5867 5861 5856 5851 5847 5842 5837 5833 5828 5824 5819 5815 5808 5801 5794 5786 5777 5768 5758 5748 5740 5732 5723 5714 5705 5697 5689 5679 5670 5659 5649 5639 5632 5627 5624 5622
5886 5888 5891 5891 5890 5890 5886 5889 5887 5880 5878 5872 5869 5864 5858 5854 5849 5844 5839 5835 5829 5824 5820 5816 5811 5804 5797 5790 5782 5774 5765 5755 5746 5738 5729 5720 5712 5702 5694 5686 5677 5668 5658 5647 5638 5631 5626 5621 5619
5885 5887 5891 5890 5889 5884 5882 5888 5879 5878 5875 5869 5865 5860 5855 5850 5846 5842 5836 5831 5827 5822 5817 5813 5807 5800 5794 5786 5779 5771 5763 5754 5745 5736 5726 5718 5710 5701 5692 5683 5675 5666 5657 5648 5639 5631 5626 5621 5618
5882 5882 5889 5888 5888 5889 5890 5878 5876 5874 5871 5868 5861 5857 5852 5848 5843 5839 5833 5828 5824 5819 5815 5810 5803 5797 5790 5784 5777 5769 5761 5751 5743 5734 5724 5716 5708 5700 5691 5682 5673 5664 5656 5648 5639 5632 5626 5621 5618
5877 5884 5885 5884 5883 5883 5882 5878 5869 5870 5867 5863 5858 5854 5849 5845 5840 5836 5831 5826 5821 5817 5812 5807 5801 5794 5788 5781 5775 5767 5759 5751 5742 5733 5723 5715 5707 5700 5691 5682 5673 5664 5656 5648 5640 5633 5626 5621 5617
5876 5878 5881 5883 5880 5877 5881 5874 5869 5864 5864 5859 5854 5850 5846 5842 5838 5833 5828 5823 5818 5814 5810 5804 5798 5792 5786 5779 5773 5766 5758 5749 5741 5732 5724 5715 5708 5700 5692 5683 5674 5665 5656 5648 5639 5631 5625 5621 5617
5870 5876 5877 5878 5880 5871 5870 5871 5866 5862 5858 5855 5850 5847 5843 5838 5835 5830 5825 5821 5816 5812 5806 5800 5794 5789 5783 5777 5771 5764 5757 5748 5740 5732 5723 5716 5708 5700 5692 5683 5675 5667 5658 5649 5640 5632 5625 5620 5617